• en France
  • Liste des pays
  • À 7 jours
  • Température de l'eau
  • Carte satellitaire
  • Carte météo
  • Widgets météo
  • user-avatar
    Se connecter

    Météo par heure à Pointe-Noire

    Ce jour, 18 Février, Dimanche

    Heure Température Précipitation Vent Pression Humidité
    00:00 +26°C° 0 mm 2 m/s 720 mmHg 84%
    01:00 +26°C° 0 mm 2 m/s 720 mmHg 87%
    02:00 +25°C° 0 mm 2 m/s 720 mmHg 88%
    03:00 +25°C° 0 mm 2 m/s 720 mmHg 88%
    04:00 +25°C° 0 mm 2 m/s 719 mmHg 89%
    05:00 +25°C° 0 mm 2 m/s 720 mmHg 89%
    06:00 +25°C° 0 mm 2 m/s 720 mmHg 89%
    07:00 +25°C° 0 mm 2 m/s 720 mmHg 89%
    08:00 +26°C° 0 mm 2 m/s 720 mmHg 83%
    09:00 +27°C° 0 mm 2 m/s 721 mmHg 77%
    10:00 +29°C° 0 mm 2 m/s 721 mmHg 70%
    11:00 +31°C° 0 mm 1 m/s 720 mmHg 60%
    12:00 +34°C° 0 mm 1 m/s 720 mmHg 49%
    13:00 +36°C° 0 mm 1 m/s 719 mmHg 38%
    14:00 +36°C° 0 mm 1 m/s 719 mmHg 36%
    15:00 +36°C° 0 mm 1 m/s 718 mmHg 34%
    16:00 +37°C° 0 mm 1 m/s 718 mmHg 32%
    17:00 +34°C° 0 mm 1 m/s 718 mmHg 39%
    18:00 +32°C° 0 mm 1 m/s 718 mmHg 45%
    19:00 +30°C° 0 mm 1 m/s 718 mmHg 51%
    20:00 +29°C° 0,1 mm 2 m/s 718 mmHg 59%
    21:00 +28°C° 0,1 mm 2 m/s 719 mmHg 66%
    22:00 +27°C° 0,1 mm 2 m/s 719 mmHg 73%
    23:00 +27°C° 0 mm 2 m/s 719 mmHg 77%

    Demain, 19 Février, Lundi

    Heure Température Précipitation Vent Pression Humidité
    00:00 +26°C° 0 mm 2 m/s 719 mmHg 80%
    01:00 +25°C° 0 mm 2 m/s 719 mmHg 83%
    02:00 +25°C° 0 mm 2 m/s 719 mmHg 85%
    03:00 +25°C° 0 mm 1 m/s 719 mmHg 87%
    04:00 +24°C° 0 mm 1 m/s 719 mmHg 89%
    05:00 +25°C° 0 mm 1 m/s 719 mmHg 89%
    06:00 +25°C° 0 mm 1 m/s 720 mmHg 89%
    07:00 +25°C° 0 mm 1 m/s 720 mmHg 89%
    08:00 +26°C° 0 mm 1 m/s 720 mmHg 81%
    09:00 +28°C° 0 mm 2 m/s 721 mmHg 73%
    10:00 +29°C° 0 mm 2 m/s 721 mmHg 65%
    11:00 +32°C° 0 mm 2 m/s 720 mmHg 55%
    12:00 +35°C° 0 mm 2 m/s 720 mmHg 46%
    13:00 +37°C° 0 mm 2 m/s 719 mmHg 37%
    14:00 +36°C° 0 mm 1 m/s 718 mmHg 36%
    15:00 +36°C° 0 mm 1 m/s 717 mmHg 34%
    16:00 +36°C° 0 mm 1 m/s 717 mmHg 33%
    17:00 +34°C° 0,1 mm 1 m/s 717 mmHg 41%
    18:00 +32°C° 0,1 mm 2 m/s 718 mmHg 48%
    19:00 +30°C° 0,1 mm 2 m/s 718 mmHg 55%
    20:00 +29°C° 0 mm 2 m/s 719 mmHg 62%
    21:00 +28°C° 0 mm 2 m/s 719 mmHg 70%
    22:00 +27°C° 0 mm 2 m/s 720 mmHg 77%
    23:00 +27°C° 0 mm 2 m/s 720 mmHg 80%

    Après-demain, 20 Février, Mardi

    Heure Température Précipitation Vent Pression Humidité
    00:00 +26°C° 0 mm 2 m/s 720 mmHg 83%
    01:00 +25°C° 0 mm 1 m/s 719 mmHg 86%
    02:00 +25°C° 0,1 mm 1 m/s 719 mmHg 88%
    03:00 +25°C° 0,1 mm 1 m/s 719 mmHg 90%
    04:00 +24°C° 0,1 mm 1 m/s 719 mmHg 92%
    05:00 +24°C° 0 mm 1 m/s 719 mmHg 92%
    06:00 +24°C° 0 mm 1 m/s 719 mmHg 92%
    07:00 +24°C° 0 mm 1 m/s 719 mmHg 92%
    08:00 +26°C° 0 mm 1 m/s 720 mmHg 81%
    09:00 +28°C° 0 mm 1 m/s 720 mmHg 70%
    10:00 +30°C° 0 mm 1 m/s 721 mmHg 59%
    11:00 +33°C° 0 mm 1 m/s 720 mmHg 52%
    12:00 +35°C° 0 mm 1 m/s 719 mmHg 44%
    13:00 +37°C° 0 mm 1 m/s 718 mmHg 37%
    14:00 +37°C° 0 mm 1 m/s 718 mmHg 36%
    15:00 +36°C° 0 mm 1 m/s 717 mmHg 36%
    16:00 +36°C° 0 mm 1 m/s 716 mmHg 36%
    17:00 +34°C° 0,1 mm 1 m/s 717 mmHg 43%
    18:00 +32°C° 0,1 mm 2 m/s 717 mmHg 51%
    19:00 +30°C° 0,1 mm 2 m/s 717 mmHg 58%
    20:00 +29°C° 0,3 mm 2 m/s 718 mmHg 66%
    21:00 +28°C° 0,3 mm 2 m/s 719 mmHg 73%
    22:00 +26°C° 0,3 mm 2 m/s 719 mmHg 81%
    23:00 +26°C° 0 mm 2 m/s 719 mmHg 82%

    21 Février, Mercredi

    Heure Température Précipitation Vent Pression Humidité
    00:00 +26°C° 0 mm 2 m/s 719 mmHg 83%
    01:00 +25°C° 0 mm 2 m/s 718 mmHg 85%
    02:00 +25°C° 0 mm 2 m/s 718 mmHg 86%
    03:00 +25°C° 0 mm 1 m/s 718 mmHg 88%
    04:00 +25°C° 0 mm 1 m/s 718 mmHg 90%
    05:00 +25°C° 0 mm 1 m/s 718 mmHg 90%
    06:00 +25°C° 0 mm 1 m/s 719 mmHg 90%
    07:00 +25°C° 0 mm 1 m/s 719 mmHg 91%
    08:00 +27°C° 0 mm 1 m/s 720 mmHg 80%
    09:00 +29°C° 0 mm 2 m/s 720 mmHg 69%
    10:00 +31°C° 0 mm 2 m/s 720 mmHg 58%
    11:00 +34°C° 0,1 mm 2 m/s 720 mmHg 52%
    12:00 +36°C° 0,1 mm 2 m/s 719 mmHg 46%
    13:00 +37°C° 0,1 mm 2 m/s 718 mmHg 40%
    14:00 +37°C° 0,1 mm 2 m/s 717 mmHg 41%
    15:00 +36°C° 0,1 mm 2 m/s 717 mmHg 41%
    16:00 +36°C° 0,1 mm 2 m/s 716 mmHg 41%
    17:00 +34°C° 0,1 mm 2 m/s 716 mmHg 48%
    18:00 +32°C° 0,1 mm 2 m/s 717 mmHg 55%
    19:00 +30°C° 0,1 mm 2 m/s 717 mmHg 62%
    20:00 +29°C° 0,1 mm 2 m/s 718 mmHg 67%
    21:00 +28°C° 0,1 mm 2 m/s 718 mmHg 72%
    22:00 +27°C° 0,1 mm 2 m/s 719 mmHg 78%
    23:00 +26°C° 0 mm 2 m/s 718 mmHg 80%

    22 Février, Jeudi

    Heure Température Précipitation Vent Pression Humidité
    00:00 +26°C° 0 mm 2 m/s 718 mmHg 82%
    01:00 +25°C° 0 mm 2 m/s 718 mmHg 85%
    02:00 +25°C° 0 mm 2 m/s 718 mmHg 86%
    03:00 +25°C° 0 mm 2 m/s 717 mmHg 87%
    04:00 +25°C° 0 mm 2 m/s 717 mmHg 88%
    05:00 +25°C° 0 mm 2 m/s 718 mmHg 88%
    06:00 +25°C° 0 mm 1 m/s 718 mmHg 88%
    07:00 +25°C° 0 mm 1 m/s 719 mmHg 88%
    08:00 +27°C° 0 mm 1 m/s 719 mmHg 81%
    09:00 +28°C° 0 mm 1 m/s 720 mmHg 73%
    10:00 +30°C° 0 mm 1 m/s 720 mmHg 65%
    11:00 +31°C° 0,1 mm 2 m/s 719 mmHg 59%
    12:00 +34°C° 0,1 mm 2 m/s 719 mmHg 52%
    13:00 +36°C° 0,1 mm 2 m/s 718 mmHg 45%
    14:00 +36°C° 0,2 mm 2 m/s 717 mmHg 46%
    15:00 +35°C° 0,2 mm 2 m/s 717 mmHg 47%
    16:00 +35°C° 0,2 mm 2 m/s 716 mmHg 48%
    17:00 +32°C° 0,1 mm 2 m/s 716 mmHg 53%
    18:00 +31°C° 0,1 mm 2 m/s 717 mmHg 59%
    19:00 +29°C° 0,1 mm 2 m/s 717 mmHg 65%
    20:00 +28°C° 0,1 mm 2 m/s 718 mmHg 70%
    21:00 +28°C° 0,1 mm 2 m/s 718 mmHg 76%
    22:00 +27°C° 0,1 mm 2 m/s 718 mmHg 82%
    23:00 +26°C° 0 mm 2 m/s 718 mmHg 85%

    23 Février, Vendredi

    Heure Température Précipitation Vent Pression Humidité
    00:00 +26°C° 0 mm 2 m/s 718 mmHg 87%
    01:00 +25°C° 0 mm 1 m/s 717 mmHg 90%
    02:00 +25°C° 0 mm 1 m/s 717 mmHg 91%
    03:00 +25°C° 0 mm 1 m/s 717 mmHg 92%
    04:00 +24°C° 0 mm 1 m/s 717 mmHg 93%
    05:00 +25°C° 0 mm 1 m/s 718 mmHg 92%
    06:00 +25°C° 0 mm 1 m/s 718 mmHg 92%
    07:00 +25°C° 0 mm 1 m/s 719 mmHg 91%
    08:00 +26°C° 0 mm 1 m/s 719 mmHg 83%
    09:00 +28°C° 0 mm 1 m/s 719 mmHg 76%
    10:00 +30°C° 0 mm 1 m/s 720 mmHg 68%
    11:00 +31°C° 0,1 mm 1 m/s 719 mmHg 61%
    12:00 +33°C° 0,1 mm 1 m/s 718 mmHg 53%
    13:00 +35°C° 0,1 mm 1 m/s 718 mmHg 46%
    14:00 +35°C° 0,1 mm 1 m/s 717 mmHg 46%
    15:00 +35°C° 0,1 mm 1 m/s 717 mmHg 46%
    16:00 +34°C° 0,1 mm 1 m/s 717 mmHg 46%
    17:00 +33°C° 0,2 mm 1 m/s 717 mmHg 53%
    18:00 +31°C° 0,2 mm 1 m/s 717 mmHg 60%
    19:00 +29°C° 0,2 mm 1 m/s 717 mmHg 67%
    20:00 +28°C° 0,3 mm 1 m/s 718 mmHg 72%
    21:00 +27°C° 0,3 mm 1 m/s 718 mmHg 77%
    22:00 +26°C° 0,3 mm 1 m/s 718 mmHg 82%
    23:00 +26°C° 0,1 mm 1 m/s 718 mmHg 84%
    Voir plus